Tracking 28790 objects as of 19-Apr-2024
HD Live streaming from Space Station
objects crossing your sky now

COSMOS 1823 DEB

Track COSMOS 1823 DEB now!
10-day predictions


NORAD ID: 18733
Int'l Code: 1987-020L
Perigee: 834.2 km
Apogee: 927.4 km
Inclination: 73.4 °
Period: 102.4 minutes
Semi major axis: 7251 km
RCS: 0.047 m2 (small)
Launch date: February 20, 1987
Source: Commonwealth of Independent States (former USSR) (CIS)
Launch site: PLESETSK MISSILE AND SPACE COMPLEX (PKMTR)

Note: This is SATELLITE DEBRIS
Your satellite tracking list
Your tracking list is empty




NASA's NSSDC Master Catalog

Two Line Element Set (TLE):
1 18733U 87020L   24109.70741002  .00098470  00000-0  58376-1 0  9994
2 18733  73.4228 213.4752 0064310 167.3494 306.8127 14.05833668741915
Source of the keplerian elements: AFSPC